{"data":{"norad_id":56288,"intl_designator":"2023-056C","name":"STARLINK-30106","alt_names":[],"object_type":"PAYLOAD","status":"ACTIVE","operator":null,"country":"US","launch_date":"2023-04-19","launch_site_code":"AFETR","launch_vehicle":null,"mission":null,"orbit_class":"UNKNOWN","rcs_meters":null,"size_class":null,"mass_kg":null,"dimensions":null,"purposes":["comms"],"wikipedia_slug":null,"has_3d_model":false,"image_url":null,"decayed_at":null,"tle_current":{"epoch":"2026-05-25T00:25:32.837088Z","epoch_age_seconds":76748,"freshness":"FRESH","line1":"1 56288U 23056C   26145.01774117 -.00002809  00000+0 -92607-4 0  9999","line2":"2 56288  43.0008 137.8451 0000701 245.5448 114.5331 15.27572730171719","mean_motion":15.2757273,"eccentricity":7.01e-5,"inclination_deg":43.0008,"raan_deg":137.8451,"arg_perigee_deg":245.5448,"mean_anomaly_deg":114.5331,"bstar":-9.2607e-5,"rev_number":17171,"period_min":94.267197346473,"perigee_km":482.58989445001,"apogee_km":483.5518357927,"semimajor_km":6861.2078651214,"source":"CELESTRAK","updated_at":"2026-05-25T13:38:17.964436Z"}}}